| time (UTC) | temp F | wind direction | speed knots | gust knots | rain 1hr in | rain 24hr in | rain mn in | humidity % | barometer mb |
| 20260906202403 | 99 | 215 | 2.6 | 10.4 | 0.00 | 0.00 | 0.00 | 28 | 1011.9 |
| 20260906201904 | 99 | 237 | 3.5 | 10.4 | 0.00 | 0.00 | 0.00 | 27 | 1012.0 |
| 20260906201403 | 99 | 238 | 3.5 | 7.8 | 0.00 | 0.00 | 0.00 | 28 | 1012.1 |
| 20260906200903 | 99 | 197 | 3.5 | 10.4 | 0.00 | 0.00 | 0.00 | 28 | 1012.0 |
| 20260906195403 | 98 | 276 | 1.7 | 6.1 | 0.00 | 0.00 | 0.00 | 29 | 1012.4 |
| 20260906194903 | 99 | 276 | 2.6 | 6.1 | 0.00 | 0.00 | 0.00 | 28 | 1012.4 |
| 20260906194404 | 98 | 238 | 1.7 | 4.3 | 0.00 | 0.00 | 0.00 | 29 | 1012.5 |
| 20260906193903 | 99 | 166 | 1.7 | 6.1 | 0.00 | 0.00 | 0.00 | 29 | 1012.6 |
| 20260906193403 | 98 | 256 | 2.6 | 6.1 | 0.00 | 0.00 | 0.00 | 29 | 1012.7 |
| 20260906192903 | 98 | 265 | 1.7 | 7.0 | 0.00 | 0.00 | 0.00 | 30 | 1012.7 |
| 20260906192403 | 98 | 270 | 2.6 | 7.0 | 0.00 | 0.00 | 0.00 | 29 | 1012.7 |
| 20260906191903 | 98 | 274 | 1.7 | 10.4 | 0.00 | 0.00 | 0.00 | 29 | 1012.8 |
| 20260906191403 | 98 | 140 | 1.7 | 10.4 | 0.00 | 0.00 | 0.00 | 30 | 1012.8 |
| 20260906190903 | 97 | 225 | 4.3 | 10.4 | 0.00 | 0.00 | 0.00 | 30 | 1012.8 |
| 20260906185903 | 97 | 52 | 1.7 | 7.0 | 0.00 | 0.00 | 0.00 | 31 | 1013.0 |
| 20260906185403 | 97 | 204 | 1.7 | 5.2 | 0.00 | 0.00 | 0.00 | 32 | 1013.1 |
| 20260906184903 | 96 | 229 | 1.7 | 6.1 | 0.00 | 0.00 | 0.00 | 32 | 1013.1 |
| 20260906184403 | 96 | 191 | 2.6 | 6.1 | 0.00 | 0.00 | 0.00 | 32 | 1013.2 |
| 20260906183903 | 95 | 235 | 2.6 | 6.1 | 0.00 | 0.00 | 0.00 | 31 | 1013.3 |
| 20260906183403 | 95 | 317 | 1.7 | 4.3 | 0.00 | 0.00 | 0.00 | 32 | 1013.4 |
| 20260906182903 | 95 | 264 | 1.7 | 4.3 | 0.00 | 0.00 | 0.00 | 32 | 1013.5 |
| 20260906182404 | 96 | 220 | 1.7 | 7.0 | 0.00 | 0.00 | 0.00 | 31 | 1013.6 |
| 20260906181403 | 95 | 233 | 4.3 | 8.7 | 0.00 | 0.00 | 0.00 | 31 | 1013.6 |
| 20260906180904 | 94 | 242 | 4.3 | 7.0 | 0.00 | 0.00 | 0.00 | 33 | 1013.6 |
| 20260906175904 | 94 | 314 | 2.6 | 7.8 | 0.00 | 0.00 | 0.00 | 33 | 1013.7 |
| 20260906175403 | 94 | 288 | 0.9 | 7.0 | 0.00 | 0.00 | 0.00 | 33 | 1013.8 |
| 20260906174903 | 93 | 227 | 4.3 | 7.0 | 0.00 | 0.00 | 0.00 | 33 | 1013.8 |
| 20260906174403 | 92 | 203 | 1.7 | 7.0 | 0.00 | 0.00 | 0.00 | 34 | 1013.8 |
| 20260906173903 | 91 | 226 | 1.7 | 2.6 | 0.00 | 0.00 | 0.00 | 36 | 1013.9 |
| 20260906172403 | 89 | 30 | 0.9 | 2.6 | 0.00 | 0.00 | 0.00 | 38 | 1013.9 |
| 20260906171903 | 89 | 223 | 0.9 | 2.6 | 0.00 | 0.00 | 0.00 | 38 | 1013.8 |
| 20260906171403 | 89 | 236 | 0.9 | 2.6 | 0.00 | 0.00 | 0.00 | 40 | 1014.0 |
| 20260906170403 | 88 | 234 | 0.9 | 1.7 | 0.00 | 0.00 | 0.00 | 40 | 1013.9 |
| 20260906165904 | 88 | 285 | 0.0 | 1.7 | 0.00 | 0.00 | 0.00 | 41 | 1013.9 |
| 20260906165403 | 87 | 233 | 0.9 | 1.7 | 0.00 | 0.00 | 0.00 | 41 | 1013.9 |
| 20260906164903 | 87 | 190 | 0.0 | 1.7 | 0.00 | 0.00 | 0.00 | 41 | 1013.9 |
| 20260906163903 | 86 | 71 | 0.9 | 1.7 | 0.00 | 0.00 | 0.00 | 42 | 1014.0 |
| 20260906163403 | 86 | 198 | 0.0 | 1.7 | 0.00 | 0.00 | 0.00 | 43 | 1013.9 |
| 20260906162903 | 86 | 102 | 0.0 | 1.7 | 0.00 | 0.00 | 0.00 | 44 | 1014.0 |
| 20260906162403 | 85 | 73 | 0.0 | 2.6 | 0.00 | 0.00 | 0.00 | 44 | 1014.0 |
| 20260906161903 | 85 | 202 | 0.9 | 2.6 | 0.00 | 0.00 | 0.00 | 44 | 1014.0 |
| 20260906160903 | 85 | 147 | 0.9 | 2.6 | 0.00 | 0.00 | 0.00 | 45 | 1014.0 |
| 20260906160403 | 85 | 198 | 0.9 | 2.6 | 0.00 | 0.00 | 0.00 | 45 | 1014.1 |
| 20260906155903 | 84 | 131 | 0.0 | 0.9 | 0.00 | 0.00 | 0.00 | 46 | 1014.1 |
| 20260906155403 | 84 | 75 | 0.9 | 1.7 | 0.00 | 0.00 | 0.00 | 47 | 1014.1 |
| 20260906154903 | 84 | 74 | 0.0 | 1.7 | 0.00 | 0.00 | 0.00 | 47 | 1014.0 |
| 20260906154403 | 83 | 58 | 0.9 | 1.7 | 0.00 | 0.00 | 0.00 | 49 | 1014.0 |
| 20260906152903 | 83 | 129 | 0.9 | 1.7 | 0.00 | 0.00 | 0.00 | 49 | 1014.2 |
| 20260906152403 | 82 | 94 | 0.0 | 1.7 | 0.00 | 0.00 | 0.00 | 50 | 1014.2 |
| 20260906151903 | 82 | 107 | 0.0 | 1.7 | 0.00 | 0.00 | 0.00 | 50 | 1014.2 |
| 20260906151403 | 82 | 98 | 0.0 | 1.7 | 0.00 | 0.00 | 0.00 | 52 | 1014.1 |
| 20260906150904 | 82 | 93 | 0.0 | 1.7 | 0.00 | 0.00 | 0.00 | 51 | 1014.1 |
| 20260906150403 | 82 | 87 | 0.0 | 1.7 | 0.00 | 0.00 | 0.00 | 52 | 1014.1 |
| 20260906145904 | 81 | 100 | 0.0 | 1.7 | 0.00 | 0.00 | 0.00 | 54 | 1014.1 |
| 20260906144903 | 80 | 104 | 0.0 | 1.7 | 0.00 | 0.00 | 0.00 | 57 | 1014.2 |
| 20260906144403 | 80 | 104 | 0.0 | 1.7 | 0.00 | 0.00 | 0.00 | 58 | 1014.2 |
| 20260906143903 | 80 | 81 | 0.0 | 0.9 | 0.00 | 0.00 | 0.00 | 59 | 1014.1 |
| 20260906143404 | 79 | 80 | 0.0 | 0.9 | 0.00 | 0.00 | 0.00 | 61 | 1014.1 |
| 20260906142903 | 79 | 80 | 0.0 | 0.9 | 0.00 | 0.00 | 0.00 | 61 | 1013.9 |
| 20260906141903 | 79 | 80 | 0.0 | 0.0 | 0.00 | 0.00 | 0.00 | 60 | 1013.8 |
| 20260906141403 | 78 | 80 | 0.0 | 0.9 | 0.00 | 0.00 | 0.00 | 63 | 1013.9 |
| 20260906140903 | 78 | 80 | 0.0 | 0.9 | 0.00 | 0.00 | 0.00 | 62 | 1013.8 |
| 20260906140404 | 78 | 80 | 0.0 | 0.9 | 0.00 | 0.00 | 0.00 | 60 | 1013.8 |
| 20260906135403 | 78 | 80 | 0.0 | 0.9 | 0.00 | 0.00 | 0.00 | 60 | 1013.6 |
| 20260906134903 | 77 | 80 | 0.0 | 0.9 | 0.00 | 0.00 | 0.00 | 59 | 1013.7 |
| 20260906134403 | 77 | 80 | 0.0 | 0.9 | 0.00 | 0.00 | 0.00 | 59 | 1013.7 |
| 20260906133903 | 77 | 80 | 0.0 | 0.0 | 0.00 | 0.00 | 0.00 | 59 | 1013.7 |
| 20260906132904 | 77 | 80 | 0.0 | 0.9 | 0.00 | 0.00 | 0.00 | 59 | 1013.7 |
| 20260906132403 | 77 | 80 | 0.0 | 0.9 | 0.00 | 0.00 | 0.00 | 58 | 1013.8 |
| 20260906131403 | 77 | 80 | 0.0 | 0.9 | 0.00 | 0.00 | 0.00 | 57 | 1013.7 |
| 20260906130904 | 77 | 80 | 0.0 | 0.9 | 0.00 | 0.00 | 0.00 | 57 | 1013.6 |
| 20260906130403 | 77 | 80 | 0.0 | 1.7 | 0.00 | 0.00 | 0.00 | 57 | 1013.6 |
| 20260906125403 | 77 | 86 | 0.0 | 1.7 | 0.00 | 0.00 | 0.00 | 58 | 1013.6 |
| 20260906124903 | 77 | 92 | 0.0 | 1.7 | 0.00 | 0.00 | 0.00 | 58 | 1013.6 |
| 20260906123903 | 77 | 84 | 0.9 | 1.7 | 0.00 | 0.00 | 0.00 | 58 | 1013.4 |
| 20260906122903 | 78 | 31 | 0.0 | 0.9 | 0.00 | 0.00 | 0.00 | 56 | 1013.2 |
| 20260906122403 | 78 | 31 | 0.0 | 0.9 | 0.00 | 0.00 | 0.00 | 54 | 1013.2 |
| 20260906121903 | 79 | 31 | 0.0 | 0.0 | 0.00 | 0.00 | 0.00 | 53 | 1013.1 |
| 20260906121404 | 79 | 31 | 0.0 | 0.0 | 0.00 | 0.00 | 0.00 | 52 | 1013.1 |
| 20260906120403 | 79 | 31 | 0.0 | 0.9 | 0.00 | 0.00 | 0.00 | 53 | 1013.2 |
| 20260906115903 | 79 | 31 | 0.0 | 0.0 | 0.00 | 0.00 | 0.00 | 54 | 1013.0 |
| 20260906115404 | 78 | 31 | 0.0 | 0.0 | 0.00 | 0.00 | 0.00 | 54 | 1012.9 |
| 20260906114903 | 78 | 31 | 0.0 | 0.9 | 0.00 | 0.00 | 0.00 | 54 | 1013.0 |
| 20260906114404 | 78 | 31 | 0.0 | 0.9 | 0.00 | 0.00 | 0.00 | 54 | 1013.0 |
| 20260906113403 | 78 | 31 | 0.0 | 0.9 | 0.00 | 0.00 | 0.00 | 56 | 1013.1 |
| 20260906112403 | 78 | 31 | 0.0 | 1.7 | 0.00 | 0.00 | 0.00 | 56 | 1013.0 |
| 20260906111903 | 78 | 31 | 0.0 | 1.7 | 0.00 | 0.00 | 0.00 | 55 | 1013.0 |
| 20260906111403 | 79 | 5 | 0.0 | 0.9 | 0.00 | 0.00 | 0.00 | 53 | 1012.8 |
| 20260906110404 | 79 | 0 | 0.0 | 1.7 | 0.00 | 0.00 | 0.00 | 51 | 1012.7 |
| 20260906105903 | 79 | 0 | 0.0 | 1.7 | 0.00 | 0.00 | 0.00 | 52 | 1012.8 |
| 20260906105403 | 79 | 26 | 0.0 | 1.7 | 0.00 | 0.00 | 0.00 | 51 | 1012.7 |
| 20260906104903 | 79 | 341 | 0.0 | 1.7 | 0.00 | 0.00 | 0.00 | 52 | 1012.8 |
| 20260906104403 | 78 | 1 | 0.0 | 1.7 | 0.00 | 0.00 | 0.00 | 53 | 1012.8 |
| 20260906103903 | 78 | 39 | 0.0 | 1.7 | 0.00 | 0.00 | 0.00 | 54 | 1012.8 |
| 20260906103403 | 78 | 53 | 0.0 | 1.7 | 0.00 | 0.00 | 0.00 | 55 | 1012.7 |
| 20260906102403 | 78 | 46 | 0.0 | 0.9 | 0.00 | 0.00 | 0.00 | 54 | 1012.8 |
| 20260906101904 | 78 | 46 | 0.0 | 1.7 | 0.00 | 0.00 | 0.00 | 54 | 1012.7 |
| 20260906100903 | 78 | 50 | 0.0 | 0.9 | 0.00 | 0.00 | 0.00 | 55 | 1012.7 |
| 20260906100403 | 78 | 50 | 0.9 | 0.9 | 0.00 | 0.00 | 0.00 | 55 | 1012.7 |
| 20260906095403 | 78 | 50 | 0.0 | 0.9 | 0.00 | 0.00 | 0.00 | 54 | 1012.6 |
| 20260906094903 | 78 | 50 | 0.0 | 0.9 | 0.00 | 0.00 | 0.00 | 54 | 1012.6 |
| 20260906094403 | 78 | 50 | 0.0 | 0.9 | 0.00 | 0.00 | 0.00 | 54 | 1012.6 |
| 20260906093903 | 78 | 50 | 0.0 | 0.9 | 0.00 | 0.00 | 0.00 | 54 | 1012.7 |
| 20260906093403 | 78 | 50 | 0.0 | 0.0 | 0.00 | 0.00 | 0.00 | 53 | 1012.7 |
| 20260906092903 | 79 | 50 | 0.0 | 0.9 | 0.00 | 0.00 | 0.00 | 53 | 1012.7 |
| 20260906092404 | 79 | 50 | 0.0 | 0.9 | 0.00 | 0.00 | 0.00 | 52 | 1012.7 |
| 20260906091903 | 79 | 50 | 0.0 | 0.0 | 0.00 | 0.00 | 0.00 | 51 | 1012.7 |
| 20260906091404 | 79 | 50 | 0.0 | 0.0 | 0.00 | 0.00 | 0.00 | 50 | 1012.6 |
| 20260906090403 | 80 | 50 | 0.0 | 0.9 | 0.00 | 0.00 | 0.00 | 48 | 1012.6 |
| 20260906085903 | 80 | 50 | 0.0 | 1.7 | 0.00 | 0.00 | 0.00 | 48 | 1012.7 |
| 20260906084903 | 80 | 43 | 0.0 | 1.7 | 0.00 | 0.00 | 0.00 | 47 | 1012.7 |
| 20260906084403 | 80 | 43 | 0.0 | 1.7 | 0.00 | 0.00 | 0.00 | 47 | 1012.7 |
| 20260906083903 | 80 | 43 | 0.0 | 0.9 | 0.00 | 0.00 | 0.00 | 47 | 1012.7 |
| 20260906083403 | 81 | 43 | 0.0 | 0.9 | 0.00 | 0.00 | 0.00 | 45 | 1012.7 |
| 20260906082903 | 81 | 43 | 0.0 | 0.9 | 0.00 | 0.00 | 0.00 | 45 | 1012.7 |
| 20260906082404 | 81 | 43 | 0.0 | 1.7 | 0.00 | 0.00 | 0.00 | 45 | 1012.6 |
| 20260906081903 | 82 | 43 | 0.0 | 1.7 | 0.00 | 0.00 | 0.00 | 44 | 1012.7 |
| 20260906081404 | 82 | 54 | 0.0 | 0.9 | 0.00 | 0.00 | 0.00 | 44 | 1012.8 |
| 20260906080903 | 82 | 57 | 0.0 | 0.9 | 0.00 | 0.00 | 0.00 | 43 | 1012.8 |
| 20260906080403 | 82 | 57 | 0.0 | 0.0 | 0.00 | 0.00 | 0.00 | 43 | 1012.9 |
| 20260906075903 | 82 | 57 | 0.0 | 0.0 | 0.00 | 0.00 | 0.00 | 43 | 1012.9 |
| 20260906075404 | 82 | 57 | 0.0 | 0.0 | 0.00 | 0.00 | 0.00 | 43 | 1012.9 |
| 20260906074903 | 83 | 57 | 0.0 | 0.0 | 0.00 | 0.00 | 0.00 | 42 | 1013.0 |
| 20260906074404 | 83 | 57 | 0.0 | 0.0 | 0.00 | 0.00 | 0.00 | 43 | 1013.0 |
| 20260906073903 | 83 | 57 | 0.0 | 0.0 | 0.00 | 0.00 | 0.00 | 42 | 1013.0 |
| 20260906073403 | 83 | 57 | 0.0 | 0.9 | 0.00 | 0.00 | 0.00 | 42 | 1013.0 |
| 20260906072403 | 83 | 57 | 0.0 | 1.7 | 0.00 | 0.00 | 0.00 | 41 | 1013.1 |
| 20260906071903 | 83 | 38 | 0.0 | 1.7 | 0.00 | 0.00 | 0.00 | 41 | 1013.1 |
| 20260906071404 | 84 | 25 | 0.0 | 1.7 | 0.00 | 0.00 | 0.00 | 41 | 1013.2 |
| 20260906070903 | 84 | 25 | 0.0 | 2.6 | 0.00 | 0.00 | 0.00 | 41 | 1013.1 |
| 20260906065403 | 84 | 18 | 0.0 | 1.7 | 0.00 | 0.00 | 0.00 | 40 | 1013.2 |
| 20260906064904 | 85 | 36 | 0.0 | 2.6 | 0.00 | 0.00 | 0.00 | 40 | 1013.2 |
| 20260906064404 | 85 | 33 | 0.0 | 2.6 | 0.00 | 0.00 | 0.00 | 40 | 1013.2 |
| 20260906063903 | 85 | 52 | 0.9 | 2.6 | 0.00 | 0.00 | 0.00 | 41 | 1013.1 |
| 20260906063403 | 84 | 64 | 1.7 | 2.6 | 0.00 | 0.00 | 0.00 | 41 | 1013.1 |
| 20260906062403 | 84 | 26 | 0.9 | 2.6 | 0.00 | 0.00 | 0.00 | 44 | 1013.1 |
| 20260906061904 | 83 | 32 | 0.0 | 1.7 | 0.00 | 0.00 | 0.00 | 46 | 1013.1 |
| 20260906061404 | 83 | 247 | 0.0 | 0.0 | 0.00 | 0.00 | 0.00 | 46 | 1013.3 |
| 20260906060903 | 84 | 247 | 0.0 | 0.0 | 0.00 | 0.00 | 0.00 | 46 | 1013.2 |
| 20260906060404 | 83 | 247 | 0.0 | 0.0 | 0.00 | 0.00 | 0.00 | 47 | 1013.3 |
| 20260906055903 | 84 | 247 | 0.0 | 0.9 | 0.00 | 0.00 | 0.00 | 47 | 1013.3 |
| 20260906055403 | 84 | 247 | 0.0 | 0.9 | 0.00 | 0.00 | 0.00 | 46 | 1013.3 |
| 20260906054903 | 84 | 247 | 0.0 | 0.9 | 0.00 | 0.00 | 0.00 | 46 | 1013.4 |
| 20260906054403 | 85 | 247 | 0.0 | 0.0 | 0.00 | 0.00 | 0.00 | 45 | 1013.4 |
| 20260906053903 | 85 | 247 | 0.0 | 0.0 | 0.00 | 0.00 | 0.00 | 45 | 1013.4 |
| 20260906053403 | 85 | 247 | 0.0 | 0.9 | 0.00 | 0.00 | 0.00 | 44 | 1013.4 |
| 20260906052903 | 85 | 247 | 0.0 | 2.6 | 0.00 | 0.00 | 0.00 | 43 | 1013.4 |
| 20260906052403 | 85 | 248 | 0.9 | 2.6 | 0.00 | 0.00 | 0.00 | 44 | 1013.5 |
| 20260906051903 | 85 | 291 | 0.9 | 1.7 | 0.00 | 0.00 | 0.00 | 44 | 1013.5 |
| 20260906051403 | 85 | 33 | 0.0 | 0.9 | 0.00 | 0.00 | 0.00 | 45 | 1013.5 |
| 20260906050903 | 85 | 33 | 0.0 | 1.7 | 0.00 | 0.00 | 0.00 | 45 | 1013.5 |
| 20260906050403 | 85 | 33 | 0.0 | 2.6 | 0.00 | 0.00 | 0.00 | 45 | 1013.5 |
| 20260906045903 | 85 | 35 | 0.9 | 2.6 | 0.00 | 0.00 | 0.00 | 45 | 1013.5 |
| 20260906045403 | 86 | 72 | 0.9 | 1.7 | 0.00 | 0.00 | 0.00 | 44 | 1013.5 |
| 20260906044903 | 86 | 38 | 0.0 | 1.7 | 0.00 | 0.00 | 0.00 | 44 | 1013.4 |
| 20260906044403 | 86 | 38 | 0.0 | 1.7 | 0.00 | 0.00 | 0.00 | 44 | 1013.4 |
| 20260906043403 | 87 | 32 | 0.9 | 4.3 | 0.00 | 0.00 | 0.00 | 43 | 1013.3 |
| 20260906042903 | 87 | 24 | 0.9 | 4.3 | 0.00 | 0.00 | 0.00 | 43 | 1013.3 |
| 20260906042403 | 87 | 36 | 0.0 | 4.3 | 0.00 | 0.00 | 0.00 | 42 | 1013.3 |
| 20260906041903 | 87 | 36 | 0.9 | 2.6 | 0.00 | 0.00 | 0.00 | 42 | 1013.4 |
| 20260906041404 | 87 | 38 | 0.9 | 2.6 | 0.00 | 0.00 | 0.00 | 42 | 1013.3 |
| 20260906040903 | 88 | 34 | 0.0 | 2.6 | 0.00 | 0.00 | 0.00 | 41 | 1013.3 |
| 20260906040403 | 88 | 11 | 0.0 | 1.7 | 0.00 | 0.00 | 0.00 | 40 | 1013.2 |
| 20260906035903 | 89 | 38 | 0.9 | 1.7 | 0.00 | 0.00 | 0.00 | 39 | 1013.3 |
| 20260906035403 | 89 | 44 | 0.9 | 1.7 | 0.00 | 0.00 | 0.00 | 38 | 1013.2 |
| 20260906034903 | 89 | 41 | 0.9 | 1.7 | 0.00 | 0.00 | 0.00 | 38 | 1013.2 |
| 20260906034403 | 89 | 34 | 0.9 | 2.6 | 0.00 | 0.00 | 0.00 | 37 | 1013.2 |
| 20260906033903 | 89 | 21 | 0.9 | 2.6 | 0.00 | 0.00 | 0.00 | 38 | 1013.1 |
| 20260906033403 | 89 | 341 | 0.0 | 2.6 | 0.00 | 0.00 | 0.00 | 38 | 1013.1 |
| 20260906032904 | 90 | 0 | 0.9 | 2.6 | 0.00 | 0.00 | 0.00 | 37 | 1012.9 |
| 20260906032403 | 90 | 37 | 0.0 | 2.6 | 0.00 | 0.00 | 0.00 | 37 | 1012.9 |
| 20260906031904 | 90 | 31 | 0.9 | 1.7 | 0.00 | 0.00 | 0.00 | 37 | 1012.8 |
| 20260906031403 | 90 | 19 | 0.0 | 2.6 | 0.00 | 0.00 | 0.00 | 37 | 1012.7 |
| 20260906030903 | 90 | 35 | 0.0 | 2.6 | 0.00 | 0.00 | 0.00 | 37 | 1012.7 |
| 20260906025903 | 90 | 20 | 0.9 | 2.6 | 0.00 | 0.00 | 0.00 | 37 | 1012.6 |
| 20260906025403 | 91 | 21 | 0.9 | 2.6 | 0.00 | 0.00 | 0.00 | 37 | 1012.5 |
| 20260906024903 | 91 | 353 | 0.9 | 2.6 | 0.00 | 0.00 | 0.00 | 36 | 1012.4 |
| 20260906023904 | 91 | 355 | 1.7 | 5.2 | 0.00 | 0.00 | 0.00 | 36 | 1012.5 |
| 20260906023403 | 91 | 319 | 1.7 | 5.2 | 0.00 | 0.00 | 0.00 | 35 | 1012.4 |
| 20260906022903 | 92 | 352 | 1.7 | 7.0 | 0.00 | 0.00 | 0.00 | 35 | 1012.3 |
| 20260906022403 | 92 | 31 | 0.9 | 7.0 | 0.00 | 0.00 | 0.00 | 35 | 1012.2 |
| 20260906021903 | 92 | 0 | 1.7 | 4.3 | 0.00 | 0.00 | 0.00 | 35 | 1012.2 |
| 20260906021404 | 92 | 346 | 1.7 | 4.3 | 0.00 | 0.00 | 0.00 | 35 | 1012.2 |
| 20260906020903 | 92 | 328 | 0.9 | 2.6 | 0.00 | 0.00 | 0.00 | 34 | 1012.1 |
| 20260906020403 | 92 | 356 | 0.9 | 4.3 | 0.00 | 0.00 | 0.00 | 34 | 1012.1 |
| 20260906015903 | 93 | 354 | 0.9 | 5.2 | 0.00 | 0.00 | 0.00 | 33 | 1012.1 |
| 20260906015403 | 93 | 341 | 0.9 | 5.2 | 0.00 | 0.00 | 0.00 | 33 | 1012.1 |
| 20260906014903 | 93 | 324 | 1.7 | 5.2 | 0.00 | 0.00 | 0.00 | 33 | 1012.0 |
| 20260906014404 | 93 | 1 | 0.9 | 4.3 | 0.00 | 0.00 | 0.00 | 32 | 1012.1 |
| 20260906013903 | 93 | 357 | 0.9 | 5.2 | 0.00 | 0.00 | 0.00 | 32 | 1012.0 |
| 20260906013403 | 94 | 338 | 1.7 | 5.2 | 0.00 | 0.00 | 0.00 | 32 | 1012.0 |
| 20260906012903 | 94 | 327 | 1.7 | 5.2 | 0.00 | 0.00 | 0.00 | 32 | 1012.1 |
| 20260906012403 | 94 | 284 | 2.6 | 5.2 | 0.00 | 0.00 | 0.00 | 31 | 1012.0 |
| 20260906011904 | 95 | 284 | 0.9 | 4.3 | 0.00 | 0.00 | 0.00 | 31 | 1012.1 |
| 20260906011404 | 95 | 289 | 1.7 | 4.3 | 0.00 | 0.00 | 0.00 | 31 | 1012.0 |
| 20260906010903 | 95 | 235 | 1.7 | 7.8 | 0.00 | 0.00 | 0.00 | 31 | 1012.0 |
| 20260906005904 | 95 | 343 | 1.7 | 7.0 | 0.00 | 0.00 | 0.00 | 31 | 1012.1 |
| 20260906004904 | 96 | 227 | 1.7 | 5.2 | 0.00 | 0.00 | 0.00 | 31 | 1012.2 |
| 20260906004403 | 96 | 249 | 1.7 | 6.1 | 0.00 | 0.00 | 0.00 | 31 | 1012.2 |
| 20260906003903 | 96 | 183 | 1.7 | 6.1 | 0.00 | 0.00 | 0.00 | 30 | 1012.1 |
| 20260906003403 | 96 | 204 | 1.7 | 4.3 | 0.00 | 0.00 | 0.00 | 31 | 1012.2 |
| 20260906002904 | 96 | 215 | 1.7 | 5.2 | 0.00 | 0.00 | 0.00 | 31 | 1012.2 |
| 20260906002404 | 96 | 298 | 2.6 | 5.2 | 0.00 | 0.00 | 0.00 | 30 | 1012.0 |
| 20260906001904 | 96 | 323 | 1.7 | 7.8 | 0.00 | 0.00 | 0.00 | 31 | 1012.2 |
| 20260906001403 | 96 | 214 | 1.7 | 8.7 | 0.00 | 0.00 | 0.00 | 31 | 1012.2 |
| 20260906000903 | 97 | 248 | 2.6 | 8.7 | 0.00 | 0.00 | 0.00 | 31 | 1012.0 |
| 20260906000404 | 97 | 235 | 2.6 | 5.2 | 0.00 | 0.00 | 0.00 | 30 | 1012.2 |
| 20260905235903 | 98 | 230 | 1.7 | 6.1 | 0.00 | 0.00 | 0.00 | 30 | 1012.1 |
| 20260905234903 | 98 | 220 | 1.7 | 7.0 | 0.00 | 0.00 | 0.00 | 30 | 1012.1 |
| 20260905234403 | 98 | 232 | 2.6 | 7.0 | 0.00 | 0.00 | 0.00 | 30 | 1012.0 |
| 20260905233904 | 98 | 272 | 3.5 | 7.0 | 0.00 | 0.00 | 0.00 | 30 | 1012.1 |
| 20260905233404 | 98 | 185 | 2.6 | 7.0 | 0.00 | 0.00 | 0.00 | 30 | 1012.1 |
| 20260905232904 | 98 | 0 | 2.6 | 6.1 | 0.00 | 0.00 | 0.00 | 30 | 1012.1 |
| 20260905231904 | 99 | 243 | 1.7 | 8.7 | 0.00 | 0.00 | 0.00 | 29 | 1012.1 |
| 20260905231403 | 99 | 213 | 4.3 | 8.7 | 0.00 | 0.00 | 0.00 | 29 | 1012.1 |
| 20260905230903 | 99 | 226 | 1.7 | 8.7 | 0.00 | 0.00 | 0.00 | 29 | 1012.2 |
| 20260905225903 | 99 | 247 | 2.6 | 7.8 | 0.00 | 0.00 | 0.00 | 29 | 1012.2 |
| 20260905224403 | 99 | 174 | 2.6 | 7.0 | 0.00 | 0.00 | 0.00 | 29 | 1012.3 |
| 20260905223904 | 99 | 228 | 2.6 | 7.0 | 0.00 | 0.00 | 0.00 | 29 | 1012.4 |
| 20260905223405 | 100 | 136 | 1.7 | 6.1 | 0.00 | 0.00 | 0.00 | 29 | 1012.4 |
| 20260905222903 | 100 | 201 | 2.6 | 6.1 | 0.00 | 0.00 | 0.00 | 29 | 1012.4 |
| 20260905222403 | 99 | 322 | 1.7 | 7.0 | 0.00 | 0.00 | 0.00 | 29 | 1012.5 |
| 20260905221903 | 99 | 227 | 1.7 | 7.0 | 0.00 | 0.00 | 0.00 | 29 | 1012.6 |
| 20260905221404 | 99 | 225 | 2.6 | 8.7 | 0.00 | 0.00 | 0.00 | 28 | 1012.7 |
| 20260905220903 | 100 | 235 | 4.3 | 8.7 | 0.00 | 0.00 | 0.00 | 28 | 1012.7 |
| 20260905220403 | 99 | 219 | 1.7 | 6.1 | 0.00 | 0.00 | 0.00 | 28 | 1012.7 |
| 20260905215903 | 100 | 212 | 1.7 | 6.1 | 0.00 | 0.00 | 0.00 | 28 | 1012.9 |
| 20260905215404 | 99 | 53 | 1.7 | 6.1 | 0.00 | 0.00 | 0.00 | 27 | 1012.8 |
| 20260905214903 | 99 | 208 | 4.3 | 6.1 | 0.00 | 0.00 | 0.00 | 28 | 1013.0 |
| 20260905213903 | 99 | 221 | 2.6 | 7.0 | 0.00 | 0.00 | 0.00 | 28 | 1013.2 |
| 20260905213404 | 99 | 212 | 2.6 | 6.1 | 0.00 | 0.00 | 0.00 | 27 | 1013.1 |
| 20260905212903 | 100 | 303 | 1.7 | 7.0 | 0.00 | 0.00 | 0.00 | 28 | 1013.2 |
| 20260905212403 | 99 | 321 | 2.6 | 7.8 | 0.00 | 0.00 | 0.00 | 29 | 1013.2 |
| 20260905211903 | 99 | 225 | 2.6 | 7.8 | 0.00 | 0.00 | 0.00 | 29 | 1013.2 |
| 20260905211403 | 99 | 266 | 1.7 | 6.1 | 0.00 | 0.00 | 0.00 | 29 | 1013.2 |
| 20260905210903 | 100 | 248 | 2.6 | 6.1 | 0.00 | 0.00 | 0.00 | 29 | 1013.4 |
| 20260905210403 | 99 | 226 | 1.7 | 7.8 | 0.00 | 0.00 | 0.00 | 29 | 1013.5 |
| 20260905205903 | 100 | 219 | 1.7 | 7.8 | 0.00 | 0.00 | 0.00 | 28 | 1013.6 |
| 20260905205404 | 100 | 274 | 2.6 | 7.8 | 0.00 | 0.00 | 0.00 | 29 | 1013.6 |
| 20260905204904 | 99 | 246 | 1.7 | 6.1 | 0.00 | 0.00 | 0.00 | 30 | 1013.6 |
| 20260905203903 | 99 | 242 | 1.7 | 7.0 | 0.00 | 0.00 | 0.00 | 30 | 1013.9 |
| 20260905203404 | 97 | 233 | 1.7 | 7.0 | 0.00 | 0.00 | 0.00 | 31 | 1013.9 |
| 20260905202903 | 98 | 229 | 3.5 | 7.0 | 0.00 | 0.00 | 0.00 | 31 | 1014.1 |